Terminal Aerodrome Forecast
Issued by NWS Atlanta, GA

Home | Current Version | Previous Version | Text Only | Print | Product List | Glossary On
Versions: 1 2 3 4 5 6 7 8 9 10 11 12 13 14 15 16 17 18 19 20 21 22 23 24 25 26 27 28 29 30 31 32 33 34 35
000
FTUS42 KFFC 051337 AAA
TAFATL
TAF AMD
KATL 051337Z 0514/0618 12004KT P6SM SKC
     FM051800 11006KT P6SM FEW060 BKN090
     FM052300 15004KT P6SM FEW090
     FM060600 00000KT P6SM SKC=

USA.gov is the U.S. government's official web portal to all federal, state and local government web resources and services.